Year,Month,Day,Hour,Minute,Value (Times are PST for temperature in C)
2012,06,29,00,00,12.20
2012,06,29,00,01,12.20
2012,06,29,00,02,12.20
2012,06,29,00,03,12.20
2012,06,29,00,04,12.20
2012,06,29,00,05,12.20
2012,06,29,00,06,12.20
2012,06,29,00,07,12.20
2012,06,29,00,08,12.20
2012,06,29,00,09,12.20
2012,06,29,00,10,12.20
2012,06,29,00,11,12.20
2012,06,29,00,12,12.20
2012,06,29,00,13,12.20
2012,06,29,00,14,12.20
2012,06,29,00,15,12.20
2012,06,29,00,16,12.20
2012,06,29,00,17,12.20
2012,06,29,00,18,12.20
2012,06,29,00,19,12.30
2012,06,29,00,20,12.30
2012,06,29,00,21,12.30
2012,06,29,00,22,12.30
2012,06,29,00,23,12.30
2012,06,29,00,24,12.30
2012,06,29,00,25,12.30
2012,06,29,00,26,12.30
2012,06,29,00,27,12.40
2012,06,29,00,28,12.40
2012,06,29,00,29,12.40
2012,06,29,00,30,12.40
2012,06,29,00,31,12.40
2012,06,29,00,32,12.50
2012,06,29,00,33,12.50
2012,06,29,00,34,12.50
2012,06,29,00,35,12.50
2012,06,29,00,36,12.60
2012,06,29,00,37,12.60
2012,06,29,00,38,12.60
2012,06,29,00,39,12.60
2012,06,29,00,40,12.60
2012,06,29,00,41,12.60
2012,06,29,00,42,12.60
2012,06,29,00,43,12.60
2012,06,29,00,44,12.60
2012,06,29,00,45,12.60
2012,06,29,00,46,12.60
2012,06,29,00,47,12.60
2012,06,29,00,48,12.60
2012,06,29,00,49,12.60
2012,06,29,00,50,12.60
2012,06,29,00,51,12.60
2012,06,29,00,52,12.60
2012,06,29,00,53,12.50
2012,06,29,00,54,12.50
2012,06,29,00,55,12.50
2012,06,29,00,56,12.60
2012,06,29,00,57,12.60
2012,06,29,00,58,12.60
2012,06,29,00,59,12.60
2012,06,29,01,00,12.60
2012,06,29,01,01,12.60
2012,06,29,01,02,12.60
2012,06,29,01,03,12.60
2012,06,29,01,04,12.60
2012,06,29,01,05,12.60
2012,06,29,01,06,12.70
2012,06,29,01,07,12.70
2012,06,29,01,08,12.70
2012,06,29,01,09,12.70
2012,06,29,01,10,12.70
2012,06,29,01,11,12.70
2012,06,29,01,12,12.80
2012,06,29,01,13,12.80
2012,06,29,01,14,12.80
2012,06,29,01,15,12.80
2012,06,29,01,16,12.80
2012,06,29,01,17,12.80
2012,06,29,01,18,12.80
2012,06,29,01,19,12.80
2012,06,29,01,20,12.80
2012,06,29,01,21,12.80
2012,06,29,01,22,12.80
2012,06,29,01,23,12.80
2012,06,29,01,24,12.80
2012,06,29,01,25,12.80
2012,06,29,01,26,12.80
2012,06,29,01,27,12.80
2012,06,29,01,28,12.80
2012,06,29,01,29,12.80
2012,06,29,01,30,12.80
2012,06,29,01,31,12.80
2012,06,29,01,32,12.80
2012,06,29,01,33,12.80
2012,06,29,01,34,12.80
2012,06,29,01,35,12.80
2012,06,29,01,36,12.80
2012,06,29,01,37,12.80
2012,06,29,01,38,12.80
2012,06,29,01,39,12.80
2012,06,29,01,40,12.80
2012,06,29,01,41,12.80
2012,06,29,01,42,12.80
2012,06,29,01,43,12.80
2012,06,29,01,44,12.80
2012,06,29,01,45,12.80
2012,06,29,01,46,12.80
2012,06,29,01,47,12.90
2012,06,29,01,48,12.90
2012,06,29,01,49,12.90
2012,06,29,01,50,12.90
2012,06,29,01,51,12.90
2012,06,29,01,52,12.90
2012,06,29,01,53,13.00
2012,06,29,01,54,13.00
2012,06,29,01,55,13.00
2012,06,29,01,56,13.00
2012,06,29,01,57,13.10
2012,06,29,01,58,13.10
2012,06,29,01,59,13.10
2012,06,29,02,00,13.10
2012,06,29,02,01,13.10
2012,06,29,02,02,13.10
2012,06,29,02,03,13.10
2012,06,29,02,04,13.10
2012,06,29,02,05,13.10
2012,06,29,02,06,13.10
2012,06,29,02,07,13.10
2012,06,29,02,08,13.10
2012,06,29,02,09,13.10
2012,06,29,02,10,13.10
2012,06,29,02,11,13.10
2012,06,29,02,12,13.10
2012,06,29,02,13,13.10
2012,06,29,02,14,13.10
2012,06,29,02,15,13.10
2012,06,29,02,16,13.10
2012,06,29,02,17,13.10
2012,06,29,02,18,13.10
2012,06,29,02,19,13.20
2012,06,29,02,20,13.20
2012,06,29,02,21,13.20
2012,06,29,02,22,13.20
2012,06,29,02,23,13.10
2012,06,29,02,24,13.10
2012,06,29,02,25,13.10
2012,06,29,02,26,13.10
2012,06,29,02,27,13.10
2012,06,29,02,28,13.10
2012,06,29,02,29,13.10
2012,06,29,02,30,13.10
2012,06,29,02,31,13.10
2012,06,29,02,32,13.10
2012,06,29,02,33,13.10
2012,06,29,02,34,13.10
2012,06,29,02,35,13.10
2012,06,29,02,36,13.10
2012,06,29,02,37,13.10
2012,06,29,02,38,13.10
2012,06,29,02,39,13.10
2012,06,29,02,40,13.10
2012,06,29,02,41,13.10
2012,06,29,02,42,13.10
2012,06,29,02,43,13.10
2012,06,29,02,44,13.10
2012,06,29,02,45,13.10
2012,06,29,02,46,13.10
2012,06,29,02,47,13.10
2012,06,29,02,48,13.10
2012,06,29,02,49,13.10
2012,06,29,02,50,13.10
2012,06,29,02,51,13.10
2012,06,29,02,52,13.10
2012,06,29,02,53,13.10
2012,06,29,02,54,13.10
2012,06,29,02,55,13.00
2012,06,29,02,56,13.00
2012,06,29,02,57,13.00
2012,06,29,02,58,13.00
2012,06,29,02,59,13.00
2012,06,29,03,00,13.00
2012,06,29,03,01,13.00
2012,06,29,03,02,13.00
2012,06,29,03,03,13.00
2012,06,29,03,04,12.90
2012,06,29,03,05,12.90
2012,06,29,03,06,12.90
2012,06,29,03,07,12.90
2012,06,29,03,08,12.90
2012,06,29,03,09,12.90
2012,06,29,03,10,12.90
2012,06,29,03,11,12.90
2012,06,29,03,12,12.90
2012,06,29,03,13,12.90
2012,06,29,03,14,12.90
2012,06,29,03,15,12.90
2012,06,29,03,16,12.90
2012,06,29,03,17,12.90
2012,06,29,03,18,12.90
2012,06,29,03,19,12.90
2012,06,29,03,20,12.90
2012,06,29,03,21,12.90
2012,06,29,03,22,12.90
2012,06,29,03,23,12.90
2012,06,29,03,24,12.90
2012,06,29,03,25,12.90
2012,06,29,03,26,12.90
2012,06,29,03,27,12.90
2012,06,29,03,28,12.90
2012,06,29,03,29,12.90
2012,06,29,03,30,12.90
2012,06,29,03,31,12.80
2012,06,29,03,32,12.80
2012,06,29,03,33,12.80
2012,06,29,03,34,12.80
2012,06,29,03,35,12.80
2012,06,29,03,36,12.80
2012,06,29,03,37,12.80
2012,06,29,03,38,12.80
2012,06,29,03,39,12.80
2012,06,29,03,40,12.80
2012,06,29,03,41,12.80
2012,06,29,03,42,12.80
2012,06,29,03,43,12.80
2012,06,29,03,44,12.80
2012,06,29,03,45,12.80
2012,06,29,03,46,12.80
2012,06,29,03,47,12.80
2012,06,29,03,48,12.80
2012,06,29,03,49,12.80
2012,06,29,03,50,12.80
2012,06,29,03,51,12.80
2012,06,29,03,52,12.80
2012,06,29,03,53,12.80
2012,06,29,03,54,12.80
2012,06,29,03,55,12.80
2012,06,29,03,56,12.80
2012,06,29,03,57,12.80
2012,06,29,03,58,12.80
2012,06,29,03,59,12.80
2012,06,29,04,00,12.80
2012,06,29,04,01,12.80
2012,06,29,04,02,12.80
2012,06,29,04,03,12.80
2012,06,29,04,04,12.80
2012,06,29,04,05,12.80
2012,06,29,04,06,12.80
2012,06,29,04,07,12.80
2012,06,29,04,08,12.80
2012,06,29,04,09,12.80
2012,06,29,04,10,12.80
2012,06,29,04,11,12.80
2012,06,29,04,12,12.80
2012,06,29,04,13,12.80
2012,06,29,04,14,12.80
2012,06,29,04,15,12.80
2012,06,29,04,16,12.80
2012,06,29,04,17,12.80
2012,06,29,04,18,12.80
2012,06,29,04,19,12.80
2012,06,29,04,20,12.80
2012,06,29,04,21,12.80
2012,06,29,04,22,12.80
2012,06,29,04,23,12.80
2012,06,29,04,24,12.80
2012,06,29,04,25,12.80
2012,06,29,04,26,12.80
2012,06,29,04,27,12.80
2012,06,29,04,28,12.80
2012,06,29,04,29,12.80
2012,06,29,04,30,12.80
2012,06,29,04,31,12.80
2012,06,29,04,32,12.80
2012,06,29,04,33,12.80
2012,06,29,04,34,12.80
2012,06,29,04,35,12.80
2012,06,29,04,36,12.80
2012,06,29,04,37,12.80
2012,06,29,04,38,12.80
2012,06,29,04,39,12.80
2012,06,29,04,40,12.80
2012,06,29,04,41,12.80
2012,06,29,04,42,12.80
2012,06,29,04,43,12.80
2012,06,29,04,44,12.80
2012,06,29,04,45,12.80
2012,06,29,04,46,12.80
2012,06,29,04,47,12.70
2012,06,29,04,48,12.70
2012,06,29,04,49,12.70
2012,06,29,04,50,12.70
2012,06,29,04,51,12.70
2012,06,29,04,52,12.70
2012,06,29,04,53,12.70
2012,06,29,04,54,12.70
2012,06,29,04,55,12.70
2012,06,29,04,56,12.70
2012,06,29,04,57,12.80
2012,06,29,04,58,12.80
2012,06,29,04,59,12.80
2012,06,29,05,00,12.80
2012,06,29,05,01,12.80
2012,06,29,05,02,12.80
2012,06,29,05,03,12.80
2012,06,29,05,04,12.80
2012,06,29,05,05,12.80
2012,06,29,05,06,12.80
2012,06,29,05,07,12.80
2012,06,29,05,08,12.80
2012,06,29,05,09,12.80
2012,06,29,05,10,12.80
2012,06,29,05,11,12.80
2012,06,29,05,12,12.80
2012,06,29,05,13,12.80
2012,06,29,05,14,12.80
2012,06,29,05,15,12.80
2012,06,29,05,16,12.80
2012,06,29,05,17,12.80
2012,06,29,05,18,12.80
2012,06,29,05,19,12.70
2012,06,29,05,20,12.70
2012,06,29,05,21,12.70
2012,06,29,05,22,12.70
2012,06,29,05,23,12.70
2012,06,29,05,24,12.70
2012,06,29,05,25,12.70
2012,06,29,05,26,12.70
2012,06,29,05,27,12.70
2012,06,29,05,28,12.70
2012,06,29,05,29,12.70
2012,06,29,05,30,12.70
2012,06,29,05,31,12.70
2012,06,29,05,32,12.80
2012,06,29,05,33,12.80
2012,06,29,05,34,12.80
2012,06,29,05,35,12.80
2012,06,29,05,36,12.80
2012,06,29,05,37,12.80
2012,06,29,05,38,12.80
2012,06,29,05,39,12.80
2012,06,29,05,40,12.80
2012,06,29,05,41,12.80
2012,06,29,05,42,12.80
2012,06,29,05,43,12.80
2012,06,29,05,44,12.80
2012,06,29,05,45,12.80
2012,06,29,05,46,12.80
2012,06,29,05,47,12.80
2012,06,29,05,48,12.80
2012,06,29,05,49,12.80
2012,06,29,05,50,12.80
2012,06,29,05,51,12.80
2012,06,29,05,52,12.80
2012,06,29,05,53,12.80
2012,06,29,05,54,12.80
2012,06,29,05,55,12.90
2012,06,29,05,56,12.90
2012,06,29,05,57,12.90
2012,06,29,05,58,12.90
2012,06,29,05,59,12.90
2012,06,29,06,00,12.90
2012,06,29,06,01,12.90
2012,06,29,06,02,12.90
2012,06,29,06,03,12.90
2012,06,29,06,04,13.00
2012,06,29,06,05,13.00
2012,06,29,06,06,13.00
2012,06,29,06,07,13.10
2012,06,29,06,08,13.10
2012,06,29,06,09,13.10
2012,06,29,06,10,13.10
2012,06,29,06,11,13.20
2012,06,29,06,12,13.20
2012,06,29,06,13,13.30
2012,06,29,06,14,13.30
2012,06,29,06,15,13.30
2012,06,29,06,16,13.30
2012,06,29,06,17,13.30
2012,06,29,06,18,13.30
2012,06,29,06,19,13.30
2012,06,29,06,20,13.30
2012,06,29,06,21,13.30
2012,06,29,06,22,13.30
2012,06,29,06,23,13.30
2012,06,29,06,24,13.30
2012,06,29,06,25,13.30
2012,06,29,06,26,13.40
2012,06,29,06,27,13.40
2012,06,29,06,28,13.50
2012,06,29,06,29,13.50
2012,06,29,06,30,13.50
2012,06,29,06,31,13.50
2012,06,29,06,32,13.40
2012,06,29,06,33,13.40
2012,06,29,06,34,13.40
2012,06,29,06,35,13.40
2012,06,29,06,36,13.40
2012,06,29,06,37,13.40
2012,06,29,06,38,13.50
2012,06,29,06,39,13.50
2012,06,29,06,40,13.50
2012,06,29,06,41,13.50
2012,06,29,06,42,13.50
2012,06,29,06,43,13.50
2012,06,29,06,44,13.60
2012,06,29,06,45,13.60
2012,06,29,06,46,13.60
2012,06,29,06,47,13.60
2012,06,29,06,48,13.60
2012,06,29,06,49,13.70
2012,06,29,06,50,13.70
2012,06,29,06,51,13.70
2012,06,29,06,52,13.70
2012,06,29,06,53,13.70
2012,06,29,06,54,13.70
2012,06,29,06,55,13.70
2012,06,29,06,56,13.70
2012,06,29,06,57,13.70
2012,06,29,06,58,13.70
2012,06,29,06,59,13.70
2012,06,29,07,00,13.70
2012,06,29,07,01,13.70
2012,06,29,07,02,13.70
2012,06,29,07,03,13.80
2012,06,29,07,04,13.80
2012,06,29,07,05,13.80
2012,06,29,07,06,13.80
2012,06,29,07,07,13.80
2012,06,29,07,08,13.90
2012,06,29,07,09,13.90
2012,06,29,07,10,13.90
2012,06,29,07,11,13.90
2012,06,29,07,12,13.90
2012,06,29,07,13,13.90
2012,06,29,07,14,13.90
2012,06,29,07,15,14.00
2012,06,29,07,16,14.00
2012,06,29,07,17,14.00
2012,06,29,07,18,14.10
2012,06,29,07,19,14.10
2012,06,29,07,20,14.20
2012,06,29,07,21,14.20
2012,06,29,07,22,14.20
2012,06,29,07,23,14.30
2012,06,29,07,24,14.30
2012,06,29,07,25,14.30
2012,06,29,07,26,14.40
2012,06,29,07,27,14.40
2012,06,29,07,28,14.50
2012,06,29,07,29,14.60
2012,06,29,07,30,14.60
2012,06,29,07,31,14.60
2012,06,29,07,32,14.60
2012,06,29,07,33,14.70
2012,06,29,07,34,14.70
2012,06,29,07,35,14.80
2012,06,29,07,36,14.70
2012,06,29,07,37,14.70
2012,06,29,07,38,14.80
2012,06,29,07,39,14.80
2012,06,29,07,40,14.80
2012,06,29,07,41,14.80
2012,06,29,07,42,14.80
2012,06,29,07,43,14.80
2012,06,29,07,44,14.80
2012,06,29,07,45,14.80
2012,06,29,07,46,14.80
2012,06,29,07,47,14.80
2012,06,29,07,48,14.80
2012,06,29,07,49,14.90
2012,06,29,07,50,14.90
2012,06,29,07,51,14.90
2012,06,29,07,52,14.90
2012,06,29,07,53,14.90
2012,06,29,07,54,14.90
2012,06,29,07,55,14.80
2012,06,29,07,56,14.80
2012,06,29,07,57,14.80
2012,06,29,07,58,14.80
2012,06,29,07,59,14.80
2012,06,29,08,00,14.80
2012,06,29,08,01,14.80
2012,06,29,08,02,14.80
2012,06,29,08,03,14.80
2012,06,29,08,04,14.80
2012,06,29,08,05,14.80
2012,06,29,08,06,14.80
2012,06,29,08,07,14.80
2012,06,29,08,08,14.80
2012,06,29,08,09,14.80
2012,06,29,08,10,14.80
2012,06,29,08,11,14.80
2012,06,29,08,12,14.90
2012,06,29,08,13,14.90
2012,06,29,08,14,15.00
2012,06,29,08,15,15.00
2012,06,29,08,16,15.00
2012,06,29,08,17,15.10
2012,06,29,08,18,15.20
2012,06,29,08,19,15.20
2012,06,29,08,20,15.20
2012,06,29,08,21,15.20
2012,06,29,08,22,15.20
2012,06,29,08,23,15.20
2012,06,29,08,24,15.20
2012,06,29,08,25,15.20
2012,06,29,08,26,15.30
2012,06,29,08,27,15.30
2012,06,29,08,28,15.30
2012,06,29,08,29,15.30
2012,06,29,08,30,15.30
2012,06,29,08,31,15.30
2012,06,29,08,32,15.30
2012,06,29,08,33,15.30
2012,06,29,08,34,15.30
2012,06,29,08,35,15.30
2012,06,29,08,36,15.30
2012,06,29,08,37,15.40
2012,06,29,08,38,15.50
2012,06,29,08,39,15.60
2012,06,29,08,40,15.60
2012,06,29,08,41,15.70
2012,06,29,08,42,15.70
2012,06,29,08,43,15.70
2012,06,29,08,44,15.70
2012,06,29,08,45,15.70
2012,06,29,08,46,15.70
2012,06,29,08,47,15.70
2012,06,29,08,48,15.80
2012,06,29,08,49,15.80
2012,06,29,08,50,15.80
2012,06,29,08,51,15.80
2012,06,29,08,52,15.80
2012,06,29,08,53,15.80
2012,06,29,08,54,15.80
2012,06,29,08,55,15.90
2012,06,29,08,56,15.90
2012,06,29,08,57,15.90
2012,06,29,08,58,15.90
2012,06,29,08,59,15.90
2012,06,29,09,00,15.90
2012,06,29,09,01,15.90
2012,06,29,09,02,15.90
2012,06,29,09,03,15.80
2012,06,29,09,04,15.90
2012,06,29,09,05,15.90
2012,06,29,09,06,15.90
2012,06,29,09,07,15.90
2012,06,29,09,08,16.00
2012,06,29,09,09,16.10
2012,06,29,09,10,16.10
2012,06,29,09,11,16.10
2012,06,29,09,12,16.10
2012,06,29,09,13,16.10
2012,06,29,09,14,16.00
2012,06,29,09,15,15.90
2012,06,29,09,16,15.90
2012,06,29,09,17,16.00
2012,06,29,09,18,15.90
2012,06,29,09,19,16.00
2012,06,29,09,20,16.10
2012,06,29,09,21,16.10
2012,06,29,09,22,16.10
2012,06,29,09,23,16.20
2012,06,29,09,24,16.20
2012,06,29,09,25,16.20
2012,06,29,09,26,16.20
2012,06,29,09,27,16.30
2012,06,29,09,28,16.30
2012,06,29,09,29,16.40
2012,06,29,09,30,16.50
2012,06,29,09,31,16.40
2012,06,29,09,32,16.40
2012,06,29,09,33,16.40
2012,06,29,09,34,16.40
2012,06,29,09,35,16.30
2012,06,29,09,36,16.30
2012,06,29,09,37,16.30
2012,06,29,09,38,16.30
2012,06,29,09,39,16.30
2012,06,29,09,40,16.40
2012,06,29,09,41,16.40
2012,06,29,09,42,16.40
2012,06,29,09,43,16.20
2012,06,29,09,44,16.20
2012,06,29,09,45,16.10
2012,06,29,09,46,16.10
2012,06,29,09,47,16.20
2012,06,29,09,48,16.20
2012,06,29,09,49,16.30
2012,06,29,09,50,16.40
2012,06,29,09,51,16.50
2012,06,29,09,52,16.50
2012,06,29,09,53,16.40
2012,06,29,09,54,16.40
2012,06,29,09,55,16.40
2012,06,29,09,56,16.40
2012,06,29,09,57,16.40
2012,06,29,09,58,16.50
2012,06,29,09,59,16.60
2012,06,29,10,00,16.70
2012,06,29,10,01,16.70
2012,06,29,10,02,16.80
2012,06,29,10,03,16.90
2012,06,29,10,04,16.90
2012,06,29,10,05,16.90
2012,06,29,10,06,16.80
2012,06,29,10,07,16.80
2012,06,29,10,08,16.70
2012,06,29,10,09,16.80
2012,06,29,10,10,16.90
2012,06,29,10,11,16.90
2012,06,29,10,12,17.00
2012,06,29,10,13,17.00
2012,06,29,10,14,16.90
2012,06,29,10,15,16.90
2012,06,29,10,16,16.80
2012,06,29,10,17,16.70
2012,06,29,10,18,16.70
2012,06,29,10,19,16.70
2012,06,29,10,20,16.70
2012,06,29,10,21,16.80
2012,06,29,10,22,16.70
2012,06,29,10,23,16.70
2012,06,29,10,24,16.70
2012,06,29,10,25,16.70
2012,06,29,10,26,16.70
2012,06,29,10,27,16.70
2012,06,29,10,28,16.70
2012,06,29,10,29,16.70
2012,06,29,10,30,16.70
2012,06,29,10,31,16.80
2012,06,29,10,32,16.80
2012,06,29,10,33,16.90
2012,06,29,10,34,16.90
2012,06,29,10,35,16.90
2012,06,29,10,36,16.90
2012,06,29,10,37,16.90
2012,06,29,10,38,16.90
2012,06,29,10,39,16.90
2012,06,29,10,40,16.90
2012,06,29,10,41,16.80
2012,06,29,10,42,16.80
2012,06,29,10,43,16.80
2012,06,29,10,44,16.70
2012,06,29,10,45,16.80
2012,06,29,10,46,16.90
2012,06,29,10,47,17.00
2012,06,29,10,48,17.10
2012,06,29,10,49,17.00
2012,06,29,10,50,17.10
2012,06,29,10,51,17.10
2012,06,29,10,52,17.10
2012,06,29,10,53,17.10
2012,06,29,10,54,17.20
2012,06,29,10,55,17.30
2012,06,29,10,56,17.30
2012,06,29,10,57,17.30
2012,06,29,10,58,17.30
2012,06,29,10,59,17.30
2012,06,29,11,00,17.30
2012,06,29,11,01,17.40
2012,06,29,11,02,17.30
2012,06,29,11,03,17.30
2012,06,29,11,04,17.30
2012,06,29,11,05,17.40
2012,06,29,11,06,17.50
2012,06,29,11,07,17.60
2012,06,29,11,08,17.50
2012,06,29,11,09,17.60
2012,06,29,11,10,17.60
2012,06,29,11,11,17.70
2012,06,29,11,12,17.70
2012,06,29,11,13,17.90
2012,06,29,11,14,18.00
2012,06,29,11,15,18.10
2012,06,29,11,16,18.20
2012,06,29,11,17,18.20
2012,06,29,11,18,18.30
2012,06,29,11,19,18.40
2012,06,29,11,20,18.40
2012,06,29,11,21,18.50
2012,06,29,11,22,18.40
2012,06,29,11,23,18.40
2012,06,29,11,24,18.40
2012,06,29,11,25,18.40
2012,06,29,11,26,18.50
2012,06,29,11,27,18.50
2012,06,29,11,28,18.50
2012,06,29,11,29,18.50
2012,06,29,11,30,18.60
2012,06,29,11,31,18.70
2012,06,29,11,32,18.60
2012,06,29,11,33,18.60
2012,06,29,11,34,18.70
2012,06,29,11,35,18.60
2012,06,29,11,36,18.80
2012,06,29,11,37,18.90
2012,06,29,11,38,18.90
2012,06,29,11,39,18.90
2012,06,29,11,40,18.90
2012,06,29,11,41,18.80
2012,06,29,11,42,18.70
2012,06,29,11,43,18.70
2012,06,29,11,44,18.70
2012,06,29,11,45,18.80
2012,06,29,11,46,18.90
2012,06,29,11,47,18.90
2012,06,29,11,48,18.90
2012,06,29,11,49,18.90
2012,06,29,11,50,18.90
2012,06,29,11,51,18.80
2012,06,29,11,52,18.70
2012,06,29,11,53,18.70
2012,06,29,11,54,18.70
2012,06,29,11,55,18.60
2012,06,29,11,56,18.60
2012,06,29,11,57,18.50
2012,06,29,11,58,18.70
2012,06,29,11,59,18.60
2012,06,29,12,00,18.60
2012,06,29,12,01,18.60
2012,06,29,12,02,18.50
2012,06,29,12,03,18.50
2012,06,29,12,04,18.60
2012,06,29,12,05,18.60
2012,06,29,12,06,18.50
2012,06,29,12,07,18.40
2012,06,29,12,08,18.30
2012,06,29,12,09,18.40
2012,06,29,12,10,18.50
2012,06,29,12,11,18.40
2012,06,29,12,12,18.30
2012,06,29,12,13,18.20
2012,06,29,12,14,18.20
2012,06,29,12,15,18.40
2012,06,29,12,16,18.50
2012,06,29,12,17,18.60
2012,06,29,12,18,18.70
2012,06,29,12,19,18.60
2012,06,29,12,20,18.50
2012,06,29,12,21,18.40
2012,06,29,12,22,18.30
2012,06,29,12,23,18.20
2012,06,29,12,24,18.10
2012,06,29,12,25,17.90
2012,06,29,12,26,18.00
2012,06,29,12,27,18.10
2012,06,29,12,28,18.20
2012,06,29,12,29,18.30
2012,06,29,12,30,18.30
2012,06,29,12,31,18.30
2012,06,29,12,32,18.30
2012,06,29,12,33,18.40
2012,06,29,12,34,18.40
2012,06,29,12,35,18.40
2012,06,29,12,36,18.50
2012,06,29,12,37,18.40
2012,06,29,12,38,18.30
2012,06,29,12,39,18.30
2012,06,29,12,40,18.30
2012,06,29,12,41,18.20
2012,06,29,12,42,18.20
2012,06,29,12,43,18.30
2012,06,29,12,44,18.30
2012,06,29,12,45,18.50
2012,06,29,12,46,18.60
2012,06,29,12,47,18.60
2012,06,29,12,48,18.60
2012,06,29,12,49,18.70
2012,06,29,12,50,18.70
2012,06,29,12,51,18.80
2012,06,29,12,52,18.80
2012,06,29,12,53,18.80
2012,06,29,12,54,18.60
2012,06,29,12,55,18.50
2012,06,29,12,56,18.50
2012,06,29,12,57,18.60
2012,06,29,12,58,18.60
2012,06,29,12,59,18.60
2012,06,29,13,00,18.70
2012,06,29,13,01,18.90
2012,06,29,13,02,18.90
2012,06,29,13,03,18.90
2012,06,29,13,04,18.90
2012,06,29,13,05,19.00
2012,06,29,13,06,19.10
2012,06,29,13,07,19.10
2012,06,29,13,08,19.20
2012,06,29,13,09,19.20
2012,06,29,13,10,19.20
2012,06,29,13,11,19.30
2012,06,29,13,12,19.40
2012,06,29,13,13,19.60
2012,06,29,13,14,19.70
2012,06,29,13,15,19.70
2012,06,29,13,16,19.60
2012,06,29,13,17,19.50
2012,06,29,13,18,19.40
2012,06,29,13,19,19.40
2012,06,29,13,20,19.40
2012,06,29,13,21,19.50
2012,06,29,13,22,19.40
2012,06,29,13,23,19.40
2012,06,29,13,24,19.40
2012,06,29,13,25,19.30
2012,06,29,13,26,19.30
2012,06,29,13,27,19.30
2012,06,29,13,28,19.40
2012,06,29,13,29,19.50
2012,06,29,13,30,19.60
2012,06,29,13,31,19.80
2012,06,29,13,32,19.80
2012,06,29,13,33,19.80
2012,06,29,13,34,19.80
2012,06,29,13,35,19.80
2012,06,29,13,36,19.90
2012,06,29,13,37,19.90
2012,06,29,13,38,19.90
2012,06,29,13,39,19.90
2012,06,29,13,40,19.90
2012,06,29,13,41,19.90
2012,06,29,13,42,20.00
2012,06,29,13,43,20.10
2012,06,29,13,44,20.20
2012,06,29,13,45,20.20
2012,06,29,13,46,20.20
2012,06,29,13,47,20.20
2012,06,29,13,48,20.20
2012,06,29,13,49,20.30
2012,06,29,13,50,20.30
2012,06,29,13,51,20.30
2012,06,29,13,52,20.30
2012,06,29,13,53,20.40
2012,06,29,13,54,20.40
2012,06,29,13,55,20.30
2012,06,29,13,56,20.30
2012,06,29,13,57,20.30
2012,06,29,13,58,20.20
2012,06,29,13,59,20.40
2012,06,29,14,00,20.50
2012,06,29,14,01,20.40
2012,06,29,14,02,20.40
2012,06,29,14,03,20.50
2012,06,29,14,04,20.40
2012,06,29,14,05,20.40
2012,06,29,14,06,20.50
2012,06,29,14,07,20.70
2012,06,29,14,08,20.80
2012,06,29,14,09,20.70
2012,06,29,14,10,20.60
2012,06,29,14,11,20.50
2012,06,29,14,12,20.50
2012,06,29,14,13,20.50
2012,06,29,14,14,20.50
2012,06,29,14,15,20.40
2012,06,29,14,16,20.40
2012,06,29,14,17,20.50
2012,06,29,14,18,20.50
2012,06,29,14,19,20.50
2012,06,29,14,20,20.40
2012,06,29,14,21,20.40
2012,06,29,14,22,20.40
2012,06,29,14,23,20.40
2012,06,29,14,24,20.40
2012,06,29,14,25,20.30
2012,06,29,14,26,20.40
2012,06,29,14,27,20.50
2012,06,29,14,28,20.70
2012,06,29,14,29,20.80
2012,06,29,14,30,20.70
2012,06,29,14,31,20.70
2012,06,29,14,32,20.70
2012,06,29,14,33,20.70
2012,06,29,14,34,20.70
2012,06,29,14,35,20.80
2012,06,29,14,36,20.80
2012,06,29,14,37,20.70
2012,06,29,14,38,20.90
2012,06,29,14,39,20.80
2012,06,29,14,40,20.70
2012,06,29,14,41,20.60
2012,06,29,14,42,20.50
2012,06,29,14,43,20.40
2012,06,29,14,44,20.30
2012,06,29,14,45,20.30
2012,06,29,14,46,20.20
2012,06,29,14,47,20.20
2012,06,29,14,48,20.40
2012,06,29,14,49,20.50
2012,06,29,14,50,20.50
2012,06,29,14,51,20.50
2012,06,29,14,52,20.50
2012,06,29,14,53,20.50
2012,06,29,14,54,20.60
2012,06,29,14,55,20.70
2012,06,29,14,56,20.90
2012,06,29,14,57,20.90
2012,06,29,14,58,20.80
2012,06,29,14,59,20.80
2012,06,29,15,00,20.70
2012,06,29,15,01,20.60
2012,06,29,15,02,20.60
2012,06,29,15,03,20.70
2012,06,29,15,04,20.70
2012,06,29,15,05,20.80
2012,06,29,15,06,20.80
2012,06,29,15,07,20.90
2012,06,29,15,08,20.90
2012,06,29,15,09,20.80
2012,06,29,15,10,20.70
2012,06,29,15,11,20.80
2012,06,29,15,12,20.80
2012,06,29,15,13,20.90
2012,06,29,15,14,21.00
2012,06,29,15,15,21.00
2012,06,29,15,16,21.00
2012,06,29,15,17,21.10
2012,06,29,15,18,21.00
2012,06,29,15,19,21.00
2012,06,29,15,20,21.00
2012,06,29,15,21,21.00
2012,06,29,15,22,21.00
2012,06,29,15,23,21.00
2012,06,29,15,24,21.00
2012,06,29,15,25,21.00
2012,06,29,15,26,21.10
2012,06,29,15,27,21.30
2012,06,29,15,28,21.30
2012,06,29,15,29,21.30
2012,06,29,15,30,21.30
2012,06,29,15,31,21.20
2012,06,29,15,32,21.10
2012,06,29,15,33,21.10
2012,06,29,15,34,21.10
2012,06,29,15,35,21.10
2012,06,29,15,36,21.10
2012,06,29,15,37,21.20
2012,06,29,15,38,21.30
2012,06,29,15,39,21.50
2012,06,29,15,40,21.60
2012,06,29,15,41,21.60
2012,06,29,15,42,21.60
2012,06,29,15,43,21.60
2012,06,29,15,44,21.60
2012,06,29,15,45,21.50
2012,06,29,15,46,21.40
2012,06,29,15,47,21.40
2012,06,29,15,48,21.30
2012,06,29,15,49,21.10
2012,06,29,15,50,20.70
2012,06,29,15,51,20.30
2012,06,29,15,52,19.80
2012,06,29,15,53,19.50
2012,06,29,15,54,19.20
2012,06,29,15,55,19.10
2012,06,29,15,56,18.90
2012,06,29,15,57,18.70
2012,06,29,15,58,18.50
2012,06,29,15,59,18.20
2012,06,29,16,00,17.90
2012,06,29,16,01,17.60
2012,06,29,16,02,17.50
2012,06,29,16,03,17.30
2012,06,29,16,04,17.10
2012,06,29,16,05,17.10
2012,06,29,16,06,17.10
2012,06,29,16,07,17.00
2012,06,29,16,08,17.00
2012,06,29,16,09,16.90
2012,06,29,16,10,16.90
2012,06,29,16,11,16.80
2012,06,29,16,12,16.70
2012,06,29,16,13,16.70
2012,06,29,16,14,16.70
2012,06,29,16,15,16.90
2012,06,29,16,16,16.90
2012,06,29,16,17,17.00
2012,06,29,16,18,17.00
2012,06,29,16,19,17.10
2012,06,29,16,20,17.20
2012,06,29,16,21,17.30
2012,06,29,16,22,17.30
2012,06,29,16,23,17.30
2012,06,29,16,24,17.30
2012,06,29,16,25,17.40
2012,06,29,16,26,17.50
2012,06,29,16,27,17.60
2012,06,29,16,28,17.50
2012,06,29,16,29,17.70
2012,06,29,16,30,17.80
2012,06,29,16,31,18.00
2012,06,29,16,32,18.10
2012,06,29,16,33,18.20
2012,06,29,16,34,18.40
2012,06,29,16,35,18.50
2012,06,29,16,36,18.50
2012,06,29,16,37,18.50
2012,06,29,16,38,18.50
2012,06,29,16,39,18.60
2012,06,29,16,40,18.70
2012,06,29,16,41,18.70
2012,06,29,16,42,18.80
2012,06,29,16,43,18.80
2012,06,29,16,44,18.80
2012,06,29,16,45,18.90
2012,06,29,16,46,19.00
2012,06,29,16,47,19.10
2012,06,29,16,48,19.10
2012,06,29,16,49,19.10
2012,06,29,16,50,19.10
2012,06,29,16,51,19.20
2012,06,29,16,52,19.20
2012,06,29,16,53,19.20
2012,06,29,16,54,19.10
2012,06,29,16,55,19.10
2012,06,29,16,56,19.00
2012,06,29,16,57,19.00
2012,06,29,16,58,19.10
2012,06,29,16,59,19.10
2012,06,29,17,00,19.00
2012,06,29,17,01,18.90
2012,06,29,17,02,18.90
2012,06,29,17,03,18.90
2012,06,29,17,04,19.10
2012,06,29,17,05,19.20
2012,06,29,17,06,19.30
2012,06,29,17,07,19.30
2012,06,29,17,08,19.30
2012,06,29,17,09,19.40
2012,06,29,17,10,19.50
2012,06,29,17,11,19.60
2012,06,29,17,12,19.70
2012,06,29,17,13,19.70
2012,06,29,17,14,19.80
2012,06,29,17,15,19.90
2012,06,29,17,16,19.90
2012,06,29,17,17,19.90
2012,06,29,17,18,20.00
2012,06,29,17,19,20.20